George Downer Airport

Jump to: basic info | weather | frequencies | runways | comments

Related pages: nearby airports | nearby navaids | notams | map

Basic information (top)

Codes: AIV KAIV
Location: lon 33.106499, lat -88.197800, elev 150 ft / 46 m msl
Status: small_airport

Weather (top)

Current conditions for Golden Triangle Regional Airport 29nm (53km) NW (rec'd 2015/03/29 02:55Z):

KGTR 290255Z AUTO 00000KT 10SM SCT085 05/M01 A3032 RMK AO1 52017

Airport forecast for Golden Triangle Regional Airport 29nm (53km) NW (rec'd 2015/03/28 00:42Z):

TAF KGTR 282340Z 2900/2924 VRB04KT P6SM SCT040 BKN080 
     FM291100 12008KT P6SM BKN030 BKN050 
     FM291700 16013G22KT P6SM SCT030 BKN050

Frequencies (top)

Verify before use: may be inaccurate or out of date.

UNIC: 122.8 MHz (CTAF/UNICOM)

Runways (top)

06/24: 4,970 x 80 ft (1,515 x 24 m) — paved — lighted — threshold 06 displaced 200 ft (61 m) — threshold 24 displaced 615 ft (187 m)

Latest comments (top)

No comments yet for George Downer Airport

More... (top)

See also NOTAMs and nearby airports and navaids, or visit the George Downer Airport page at the main OurAirports website..